Regional Weather Roundup
Issued by NWS Wilmington, NC

Home | Current Version | Previous Version | Text Only | Print | Product List | Glossary On
Versions: 1 2 3 4 5 6 7 8 9 10 11 12 13 14 15 16 17 18 19 20 21 22 23 24 25 26 27 28 29 30 31 32 33 34 35 36 37 38 39 40 41 42 43 44 45 46 47 48 49 50
000
ASUS42 KILM 181513
RWRILM
RWRILM
REGIONAL HOURLY WEATHER ROUNDUP
NATIONAL WEATHER SERVICE WILMINGTON NC
1000 AM EST MON DEC 18 2017

NOTE: "FAIR" INDICATES FEW OR NO CLOUDS BELOW 12,000 FEET WITH NO
SIGNIFICANT WEATHER AND/OR OBSTRUCTIONS TO VISIBILITY.

...............WFO WILMINGTON COUNTY WARNING AREA...............

......COASTAL NC AND SC COUNTIES......

CITY           SKY/WX    TMP DP  RH WIND       PRES   REMARKS
WILMINGTON     CLOUDY    61  52  72 CALM      30.20R
N MYRTLE BEACH CLOUDY    62  57  83 W3        30.19R
MYRTLE BEACH   PTSUNNY   65  58  78 W10       30.21R

......INLAND NC AND SC COUNTIES.......

CITY           SKY/WX    TMP DP  RH WIND       PRES   REMARKS
LUMBERTON      SUNNY     58  48  69 SW5       30.19S
ELIZABETHTOWN  NOT AVBL
WHITEVILLE     MOSUNNY   60  52  76 W5        30.19R
FLORENCE       CLOUDY    59  49  69 W6        30.20S
DARLINGTON     SUNNY     56  42  59 SW5       30.21R
KINGSTREE      CLOUDY    59  52  77 CALM      30.20S
HARTSVILLE     FAIR      55  41  58 W3        30.19S
BENNETTSVILLE  FAIR      57  43  58 S3        30.20R
CONWAY         CLOUDY    59  55  88 CALM      30.20R FOG
GEORGETOWN     CLOUDY    64  61  88 W7        30.21R
MARION         CLOUDY    55  50  82 W5        30.20S

....................REST OF NORTH CAROLINA......................

.........EASTERN NC.........

CITY           SKY/WX    TMP DP  RH WIND       PRES   REMARKS
CAPE HATTERAS  MOSUNNY   57  47  69 SW6       30.18S
JACKSONVILLE   MOSUNNY   60  47  61 S6        30.20R
MOREHEAD CITY  CLOUDY    57  47  69 CALM      30.20R
KENANSVILLE    CLOUDY    57  45  62 W3        30.19S
NEW BERN       PTSUNNY   56  47  71 CALM      30.20R
ELIZABETH CITY SUNNY     54  44  69 W12       30.17S

.........CENTRAL NC.........

CITY           SKY/WX    TMP DP  RH WIND       PRES   REMARKS
RALEIGH DURHAM MOSUNNY   49  40  71 CALM      30.19R
ROCKY MOUNT    SUNNY     50  40  68 CALM      30.19R
ROANOKE RAPIDS NOT AVBL
FAYETTEVILLE   MOSUNNY   57  42  57 CALM      30.19R
HOFFMAN        SUNNY     54  37  52 CALM      30.18S

.........WESTERN NC.........

CITY           SKY/WX    TMP DP  RH WIND       PRES   REMARKS
CHARLOTTE      PTSUNNY   54  45  71 VRB5      30.18S
GREENSBORO     CLOUDY    45  44  97 W12       30.18R FOG
HICKORY        NOT AVBL
BOONE          NOT AVBL
ASHEVILLE      NOT AVBL

.....................REST OF SOUTH CAROLINA.....................

.........EASTERN SC.........

CITY           SKY/WX    TMP DP  RH WIND       PRES   REMARKS
CHARLESTON     CLOUDY    61  59  93 W7        30.21R
BEAUFORT MCAS  CLOUDY    63  62  97 SW8       30.22R
HILTON HEAD    PTSUNNY   61  61 100 S9        30.23R

.........CENTRAL SC.........

CITY           SKY/WX    TMP DP  RH WIND       PRES   REMARKS
COLUMBIA       PTSUNNY   58  45  62 CALM      30.20R
ORANGEBURG     CLOUDY    61  55  81 SW7       30.21R
SUMTER SHAW    CLOUDY    57  47  69 W6        30.18R

.........WESTERN SC.........

CITY           SKY/WX    TMP DP  RH WIND       PRES   REMARKS
GREENVILLE     NOT AVBL
ROCK HILL      SUNNY     52  40  63 SW5       30.18S
ANDERSON       CLOUDY    49  48  97 SW6       30.19S FOG
CLEMSON        NOT AVBL
GREENWOOD      CLOUDY    48  48 100 SW6       30.21S FOG


...................COASTAL AND OFFSHORE REPORTS..................

................LOCAL PIERS AND NC RESERVE................


STATION/POSITION TIME  SKY/WX   TEMP    WIND        PRES    VSBY
                                AIR SEA DIR/SP/G
                 (UTC)          (F)     (DEG/KT/KT) (MB)    (MI)
JOHNY MRCER PIER 1436            55 56   30/  5/  5 1022.5R
NC RESRV MASNBRO 1345            54      60/  2     1022.0
OCEAN CREST PIER NOT AVBL
SPRINGMAID  PIER 1436                               1025.3R


................COASTAL AND OFFSHORE BUOYS................


STATION/POSITION TIME  SKY/WX   TEMP    WIND        PRES    VSBY
                                AIR SEA DIR/SP/G
                 (UTC)          (F)     (DEG/KT/KT) (MB)    (MI)
DIMNDSHOAL 41025 1500            61 72  310/  8/ 12 1022.3
CAPE LOOKOUT     1500                   250/  2/  3 1022.8R
ONSLOW BAY 41036 NOT AVBL
ONSLOW BAY 41064 1408            61 63  360/  2/  4 1022.1R
ONSLOW BAY 41159 1500               63                N/A
WVE H/P(F/S)=  1/10

MASNBO INL 41110 1459               55                N/A
WVE H/P(F/S)=  1/10

WILM HARBR 41108 1500               58                N/A
WVE H/P(F/S)=  1/10

27SE WRITB 41037 1408            62 58   CALM  /  2 1022.0R
FRYING PAN 41013 1500            69 71  270/ 16/ 17 1022.2
SUNST NRSH 41024 1408            55      CALM  /  2 1021.8R
CAPRS NRSH 41029 1408            55 56  240/  8/ 10 1022.2R
EDISTO     41004 1500            70 73  240/ 14/ 17 1022.8


..........OFFSHORE BUOYS BEYOND 100 NM OFFSHORE...........
.....IN A TRIANGLE---HAT TO BERMUDA TO BAHAMAS TO HAT.....


STATION/POSITION TIME  SKY/WX   TEMP    WIND        PRES    VSBY
                                AIR SEA DIR/SP/G
                 (UTC)          (F)     (DEG/KT/KT) (MB)    (MI)
150E HAT   41001 NOT AVBL
W BERMUDA  41048 1500            70 74  260/ 12/ 16 1024.4
ATLANTIC S 41049 1450            72 77   30/ 12/ 14 1025.2F
WVE H/P(F/S)=  7/11 SWL H/P/D(F/S/D)=  7/340/11

E BAHAMAS  41046 1500            76 80   60/ 17/ 23 1023.1
NE BAHAMAS 41047 1500            71      60/  6/  8 1025.6
120E CANVRL41010 NOT AVBL

END



USA.gov is the U.S. government's official web portal to all federal, state and local government web resources and services.